EW5390 Weather Reports


Display with metric or nautical units.
time (UTC)temp
F
wind
direction
speed
MPH
gust
MPH
rain 1hr
in
rain 24hr
in
rain mn
in
humidity
%
barometer
mb
20260509194552 72 169 1.0 4.0 0.00 0.00 0.00 62 1009.1
20260509194054 72 20 1.0 3.0 0.00 0.00 0.00 60 1009.3
20260509193553 72 264 0.0 6.0 0.00 0.00 0.00 60 1009.4
20260509193057 72 205 1.0 6.0 0.00 0.00 0.00 59 1009.6
20260509192553 72 311 3.0 6.0 0.00 0.00 0.00 59 1009.7
20260509192051 72 295 2.0 4.0 0.00 0.00 0.00 60 1009.7
20260509191553 72 304 1.0 5.0 0.00 0.00 0.00 59 1009.7
20260509191050 72 330 1.0 6.0 0.00 0.00 0.00 58 1009.7
20260509190553 72 267 2.0 6.0 0.00 0.00 0.00 59 1009.7
20260509190058 72 298 2.0 6.0 0.00 0.00 0.00 59 1009.9
20260509185554 72 302 2.0 6.0 0.00 0.00 0.00 59 1009.8
20260509185053 72 295 2.0 4.0 0.00 0.00 0.00 61 1009.8
20260509184606 73 315 1.0 4.0 0.00 0.00 0.00 60 1009.7
20260509184053 73 55 1.0 4.0 0.00 0.00 0.00 58 1009.8
20260509183553 72 248 1.0 4.0 0.00 0.00 0.00 60 1010.0
20260509183059 73 319 0.0 3.0 0.00 0.00 0.00 58 1010.1
20260509182555 73 297 1.0 6.0 0.00 0.00 0.00 58 1010.1
20260509182054 72 285 1.0 6.0 0.00 0.00 0.00 56 1010.2
20260509181620 72 326 1.0 6.0 0.00 0.00 0.00 56 1010.1
20260509181051 72 273 2.0 6.0 0.00 0.00 0.00 57 1010.2
20260509180554 72 0 2.0 5.0 0.00 0.00 0.00 56 1010.2
20260509180057 73 308 2.0 5.0 0.00 0.00 0.00 55 1010.1
20260509175554 73 311 1.0 5.0 0.00 0.00 0.00 55 1010.1
20260509175054 73 314 1.0 5.0 0.00 0.00 0.00 55 1010.2
20260509174559 73 308 1.0 5.0 0.00 0.00 0.00 56 1010.1
20260509174058 73 334 1.0 3.0 0.00 0.00 0.00 56 1010.1
20260509173554 73 295 1.0 4.0 0.00 0.00 0.00 57 1010.1
20260509173105 73 343 1.0 4.0 0.00 0.00 0.00 57 1010.2
20260509172556 73 152 2.0 4.0 0.00 0.00 0.00 56 1010.1
20260509172057 73 359 0.0 3.0 0.00 0.00 0.00 55 1010.3
20260509171609 73 263 1.0 7.0 0.00 0.00 0.00 56 1010.3
20260509171053 74 248 1.0 7.0 0.00 0.00 0.00 55 1010.3
20260509170556 73 161 1.0 6.0 0.00 0.00 0.00 57 1010.3
20260509170109 73 337 2.0 6.0 0.00 0.00 0.00 54 1010.3
20260509165553 73 149 1.0 6.0 0.00 0.00 0.00 57 1010.4
20260509165056 73 170 2.0 6.0 0.00 0.00 0.00 56 1010.6
20260509164609 72 44 1.0 5.0 0.00 0.00 0.00 59 1010.7
20260509164054 71 0 1.0 6.0 0.00 0.00 0.00 57 1010.9
20260509163553 71 319 1.0 6.0 0.00 0.00 0.00 57 1010.9
20260509163103 72 329 1.0 3.0 0.00 0.00 0.00 60 1011.0
20260509162557 71 65 1.0 3.0 0.00 0.00 0.00 58 1010.9
20260509162057 71 240 2.0 3.0 0.00 0.00 0.00 58 1010.8
20260509161605 71 328 1.0 4.0 0.00 0.00 0.00 60 1010.9
20260509161053 71 22 0.0 5.0 0.00 0.00 0.00 60 1010.7
20260509160557 71 266 1.0 5.0 0.00 0.00 0.00 60 1010.7
20260509160059 71 49 2.0 5.0 0.00 0.00 0.00 60 1010.8
20260509155553 71 60 1.0 5.0 0.00 0.00 0.00 61 1011.1
20260509155053 71 158 2.0 8.0 0.00 0.00 0.00 61 1011.2
20260509154605 70 136 1.0 8.0 0.00 0.00 0.00 61 1011.4
20260509154054 70 217 1.0 5.0 0.00 0.00 0.00 63 1011.3
20260509153554 70 74 1.0 5.0 0.00 0.00 0.00 64 1011.3
20260509153105 69 79 2.0 5.0 0.00 0.00 0.00 63 1011.6
20260509152554 69 155 1.0 5.0 0.00 0.00 0.00 65 1011.7
20260509152056 69 76 1.0 5.0 0.00 0.00 0.00 65 1011.7
20260509151603 69 173 1.0 5.0 0.00 0.00 0.00 65 1011.9
20260509151053 69 201 1.0 6.0 0.00 0.00 0.00 64 1011.9
20260509150554 69 334 1.0 6.0 0.00 0.00 0.00 65 1011.9
20260509150054 69 161 0.0 4.0 0.00 0.00 0.00 68 1012.0
20260509145552 69 333 1.0 4.0 0.00 0.00 0.00 68 1012.0
20260509145055 69 314 1.0 5.0 0.00 0.00 0.00 69 1012.0
20260509144608 69 234 1.0 5.0 0.00 0.00 0.00 70 1012.0
20260509144058 68 304 0.0 4.0 0.00 0.00 0.00 69 1012.0
20260509143554 68 297 1.0 5.0 0.00 0.00 0.00 69 1012.1
20260509143117 68 9 1.0 5.0 0.00 0.00 0.00 70 1012.0
20260509142554 68 268 1.0 5.0 0.00 0.00 0.00 72 1011.9
20260509142055 67 181 0.0 2.0 0.00 0.00 0.00 73 1012.0
20260509141557 67 176 0.0 2.0 0.00 0.00 0.00 74 1012.0
20260509141053 67 59 0.0 3.0 0.00 0.00 0.00 74 1012.0
20260509140554 67 179 0.0 4.0 0.00 0.00 0.00 74 1012.0
20260509140106 66 210 1.0 4.0 0.00 0.00 0.00 75 1011.9
20260509135553 66 0 0.0 4.0 0.00 0.00 0.00 76 1012.0
20260509135057 65 77 1.0 4.0 0.00 0.00 0.00 76 1012.0
20260509134611 65 62 0.0 3.0 0.00 0.00 0.00 77 1012.0
20260509134053 65 121 1.0 3.0 0.00 0.00 0.00 77 1012.1
20260509133554 65 180 0.0 2.0 0.00 0.00 0.00 78 1012.1
20260509133057 65 210 0.0 3.0 0.00 0.00 0.00 80 1012.1
20260509132555 64 0 0.0 3.0 0.00 0.00 0.00 81 1012.2
20260509132056 64 198 0.0 3.0 0.00 0.00 0.00 80 1012.3
20260509131558 64 221 0.0 3.0 0.00 0.00 0.00 81 1012.2
20260509131054 63 135 1.0 3.0 0.00 0.00 0.00 82 1012.2
20260509130554 63 116 1.0 3.0 0.00 0.00 0.00 82 1012.2
20260509130101 62 176 0.0 3.0 0.00 0.00 0.00 82 1012.4
20260509125555 62 0 0.0 3.0 0.00 0.00 0.00 83 1012.4
20260509125053 62 166 1.0 3.0 0.00 0.00 0.00 83 1012.4
20260509124556 62 226 0.0 2.0 0.00 0.00 0.00 83 1012.4
20260509124053 61 172 0.0 4.0 0.00 0.00 0.00 83 1012.4
20260509123553 61 0 0.0 4.0 0.00 0.00 0.00 83 1012.5
20260509123130 61 163 1.0 4.0 0.00 0.00 0.00 83 1012.5
20260509122551 61 233 1.0 3.0 0.00 0.00 0.00 84 1012.4
20260509122052 61 153 0.0 3.0 0.00 0.00 0.00 84 1012.4
20260509121612 60 162 0.0 3.0 0.00 0.00 0.00 84 1012.3
20260509121055 60 20 0.0 3.0 0.00 0.00 0.00 85 1012.4
20260509120554 59 152 0.0 3.0 0.00 0.00 0.00 85 1012.5
20260509120112 59 134 1.0 3.0 0.00 0.00 0.00 85 1012.5
20260509115553 59 150 1.0 3.0 0.00 0.00 0.00 85 1012.5
20260509115053 59 165 0.0 2.0 0.00 0.00 0.00 85 1012.5
20260509114603 59 45 1.0 3.0 0.00 0.00 0.00 85 1012.6
20260509114054 58 236 1.0 3.0 0.00 0.00 0.00 85 1012.5
20260509113555 58 241 1.0 3.0 0.00 0.00 0.00 85 1012.6
20260509113115 58 210 1.0 3.0 0.00 0.00 0.00 86 1012.7
20260509112553 58 146 0.0 3.0 0.00 0.00 0.00 86 1012.6
20260509112053 58 136 0.0 3.0 0.00 0.00 0.00 86 1012.6
20260509111605 58 0 1.0 3.0 0.00 0.00 0.00 86 1012.6
20260509111053 57 153 1.0 3.0 0.00 0.00 0.00 86 1012.7
20260509110552 57 0 1.0 3.0 0.00 0.00 0.00 87 1012.9
20260509110100 57 159 0.0 3.0 0.00 0.00 0.00 87 1012.8
20260509105553 57 165 1.0 3.0 0.00 0.00 0.00 87 1012.8
20260509105055 57 150 0.0 3.0 0.00 0.00 0.00 87 1012.8
20260509104554 57 151 1.0 3.0 0.00 0.00 0.00 87 1012.8
20260509104053 57 181 1.0 3.0 0.00 0.00 0.00 87 1012.8
20260509103553 57 160 0.0 2.0 0.00 0.00 0.00 87 1012.6
20260509103103 57 152 0.0 2.0 0.00 0.00 0.00 87 1012.6
20260509102554 57 147 0.0 3.0 0.00 0.00 0.00 87 1012.6
20260509102055 57 155 0.0 3.0 0.00 0.00 0.00 87 1012.6
20260509101622 57 141 1.0 3.0 0.00 0.00 0.00 87 1012.5
20260509101054 57 193 1.0 3.0 0.00 0.00 0.00 87 1012.7
20260509100554 57 140 1.0 2.0 0.00 0.00 0.00 87 1012.7
20260509100057 57 153 0.0 2.0 0.00 0.00 0.00 87 1012.5
20260509095552 57 136 0.0 2.0 0.00 0.00 0.00 87 1012.4
20260509095052 57 157 1.0 2.0 0.00 0.00 0.00 87 1012.3
20260509094559 57 147 0.0 2.0 0.00 0.00 0.00 87 1012.3
20260509094050 57 148 0.0 2.0 0.00 0.00 0.00 87 1012.3
20260509093555 57 0 0.0 3.0 0.00 0.00 0.00 87 1012.2
20260509093104 57 166 1.0 3.0 0.00 0.00 0.00 87 1012.3
20260509092554 57 174 1.0 3.0 0.00 0.00 0.00 87 1012.3
20260509092054 56 151 0.0 2.0 0.00 0.00 0.00 87 1012.3
20260509091557 56 156 1.0 2.0 0.00 0.00 0.00 87 1012.4
20260509091054 56 154 1.0 2.0 0.00 0.00 0.00 87 1012.3
20260509090554 56 134 1.0 2.0 0.00 0.00 0.00 87 1012.2
20260509085551 56 159 0.0 3.0 0.00 0.00 0.00 86 1012.2
20260509085056 56 0 1.0 3.0 0.00 0.00 0.00 86 1012.4
20260509084556 56 147 0.0 1.0 0.00 0.00 0.00 85 1012.5
20260509084054 56 174 0.0 1.0 0.00 0.00 0.00 85 1012.7
20260509083551 56 0 0.0 1.0 0.00 0.00 0.00 85 1012.5
20260509083054 56 0 0.0 2.0 0.00 0.00 0.00 84 1012.6
20260509082554 56 150 0.0 2.0 0.00 0.00 0.00 84 1012.5
20260509082054 56 94 0.0 2.0 0.00 0.00 0.00 84 1012.4
20260509081606 56 107 1.0 2.0 0.00 0.00 0.00 83 1012.5
20260509081055 56 224 0.0 3.0 0.00 0.00 0.00 83 1012.5
20260509080556 56 158 1.0 3.0 0.00 0.00 0.00 83 1012.5
20260509080054 56 181 1.0 3.0 0.00 0.00 0.00 82 1012.5
20260509075554 56 151 1.0 4.0 0.00 0.00 0.00 82 1012.5
20260509075056 56 150 0.0 4.0 0.00 0.00 0.00 82 1012.5
20260509074557 56 177 1.0 4.0 0.00 0.00 0.00 82 1012.6
20260509074056 56 160 1.0 3.0 0.00 0.00 0.00 82 1012.8
20260509073557 56 0 0.0 3.0 0.00 0.00 0.00 81 1012.8
20260509073105 56 175 1.0 3.0 0.00 0.00 0.00 81 1012.8
20260509072555 56 117 0.0 3.0 0.00 0.00 0.00 81 1012.7
20260509072057 56 163 1.0 3.0 0.00 0.00 0.00 80 1012.6
20260509071559 56 171 1.0 3.0 0.00 0.00 0.00 80 1012.8
20260509071054 56 155 1.0 3.0 0.00 0.00 0.00 80 1012.8
20260509070554 55 131 1.0 2.0 0.00 0.00 0.00 80 1012.9
20260509070058 55 158 0.0 2.0 0.00 0.00 0.00 80 1012.8
20260509065552 55 0 0.0 2.0 0.00 0.00 0.00 80 1012.9
20260509065054 55 164 0.0 2.0 0.00 0.00 0.00 80 1012.8
20260509064613 55 273 1.0 2.0 0.00 0.00 0.00 80 1012.9
20260509064051 55 149 0.0 2.0 0.00 0.00 0.00 80 1012.8
20260509063552 55 169 0.0 2.0 0.00 0.00 0.00 79 1012.8
20260509063052 55 162 0.0 2.0 0.00 0.00 0.00 79 1012.9
20260509062554 54 155 0.0 2.0 0.00 0.00 0.00 78 1012.9
20260509062051 54 125 0.0 2.0 0.00 0.00 0.00 78 1013.0
20260509061553 54 163 0.0 2.0 0.00 0.00 0.00 78 1013.0
20260509061053 54 153 0.0 2.0 0.00 0.00 0.00 78 1013.0
20260509060552 54 160 0.0 1.0 0.00 0.00 0.00 78 1013.0
20260509060056 55 160 0.0 1.0 0.00 0.00 0.00 77 1013.1
20260509055552 55 0 0.0 2.0 0.00 0.00 0.00 77 1013.2
20260509055057 54 162 0.0 2.0 0.00 0.00 0.00 77 1013.2
20260509054602 55 0 0.0 2.0 0.00 0.00 0.00 77 1013.2
20260509054054 55 158 0.0 2.0 0.00 0.00 0.00 76 1013.2
20260509053552 55 152 0.0 2.0 0.00 0.00 0.00 76 1013.2
20260509053107 55 0 0.0 2.0 0.00 0.00 0.00 76 1013.3
20260509052553 55 215 0.0 2.0 0.00 0.00 0.00 75 1013.4
20260509052055 55 165 0.0 3.0 0.00 0.00 0.00 75 1013.3
20260509051606 55 179 0.0 3.0 0.00 0.00 0.00 75 1013.3
20260509051054 55 136 0.0 2.0 0.00 0.00 0.00 75 1013.4
20260509050552 55 0 0.0 3.0 0.00 0.00 0.00 74 1013.4
20260509050058 55 177 1.0 3.0 0.00 0.00 0.00 74 1013.4
20260509045553 55 75 1.0 3.0 0.00 0.00 0.00 73 1013.4
20260509045052 55 160 0.0 3.0 0.00 0.00 0.00 73 1013.4
20260509044559 55 153 1.0 3.0 0.00 0.00 0.00 73 1013.4
20260509044054 55 157 1.0 2.0 0.00 0.00 0.00 73 1013.5
20260509043551 55 153 1.0 2.0 0.00 0.00 0.00 73 1013.5
20260509043055 55 166 1.0 3.0 0.00 0.00 0.00 73 1013.4
20260509042554 55 168 0.0 3.0 0.00 0.00 0.00 73 1013.5
20260509042056 55 162 1.0 3.0 0.00 0.00 0.00 72 1013.5
20260509041617 55 173 1.0 3.0 0.00 0.00 0.00 72 1013.6
20260509041055 55 162 1.0 3.0 0.00 0.00 0.00 72 1013.6
20260509040557 55 160 1.0 3.0 0.00 0.00 0.00 72 1013.7
20260509040056 55 159 1.0 2.0 0.00 0.00 0.00 72 1013.6
20260509035554 56 0 0.0 3.0 0.00 0.00 0.00 71 1013.6
20260509035051 56 153 0.0 3.0 0.00 0.00 0.00 71 1013.6
20260509034553 56 159 1.0 2.0 0.00 0.00 0.00 70 1013.7
20260509034051 56 156 0.0 3.0 0.00 0.00 0.00 69 1013.8
20260509033554 56 158 1.0 3.0 0.00 0.00 0.00 69 1013.9
20260509033054 56 169 1.0 2.0 0.00 0.00 0.00 68 1013.8
20260509032552 56 162 0.0 3.0 0.00 0.00 0.00 68 1013.9
20260509032055 56 134 0.0 3.0 0.00 0.00 0.00 67 1013.8
20260509031554 56 159 0.0 2.0 0.00 0.00 0.00 67 1013.8
20260509031055 57 154 0.0 2.0 0.00 0.00 0.00 68 1013.7
20260509030554 57 159 0.0 2.0 0.00 0.00 0.00 67 1013.7
20260509030056 57 163 1.0 2.0 0.00 0.00 0.00 67 1013.7
20260509025557 57 165 1.0 2.0 0.00 0.00 0.00 66 1013.6
20260509025054 57 0 0.0 2.0 0.00 0.00 0.00 66 1013.6
20260509024552 57 136 0.0 2.0 0.00 0.00 0.00 66 1013.6
20260509024054 57 162 0.0 2.0 0.00 0.00 0.00 66 1013.5
20260509023554 57 152 0.0 2.0 0.00 0.00 0.00 65 1013.5
20260509023109 58 160 0.0 2.0 0.00 0.00 0.00 64 1013.6
20260509022556 58 203 0.0 3.0 0.00 0.00 0.00 64 1013.6
20260509022054 58 162 1.0 3.0 0.00 0.00 0.00 64 1013.7
20260509021554 58 0 0.0 3.0 0.00 0.00 0.00 63 1013.6
20260509021054 58 158 0.0 3.0 0.00 0.00 0.00 63 1013.5
20260509020553 58 160 1.0 3.0 0.00 0.00 0.00 63 1013.6
20260509020101 58 0 0.0 1.0 0.00 0.00 0.00 62 1013.6
20260509015554 58 188 0.0 1.0 0.00 0.00 0.00 62 1013.6
20260509015055 58 0 0.0 1.0 0.00 0.00 0.00 62 1013.6
20260509014557 58 173 0.0 2.0 0.00 0.00 0.00 62 1013.6
20260509014054 58 0 0.0 2.0 0.00 0.00 0.00 61 1013.5
20260509013554 58 176 0.0 1.0 0.00 0.00 0.00 61 1013.4
20260509013102 59 167 0.0 1.0 0.00 0.00 0.00 61 1013.5
20260509012554 59 167 0.0 1.0 0.00 0.00 0.00 61 1013.4
20260509012056 59 158 0.0 1.0 0.00 0.00 0.00 59 1013.4
20260509011601 59 0 0.0 2.0 0.00 0.00 0.00 59 1013.3
20260509011054 59 0 0.0 2.0 0.00 0.00 0.00 58 1013.2
20260509010552 59 163 0.0 1.0 0.00 0.00 0.00 59 1013.3
20260509010056 59 147 0.0 1.0 0.00 0.00 0.00 58 1013.2
20260509005552 60 164 0.0 1.0 0.00 0.00 0.00 59 1013.1
20260509005054 60 238 0.0 1.0 0.00 0.00 0.00 58 1013.0
20260509004558 60 0 0.0 1.0 0.00 0.00 0.00 58 1012.9
20260509004055 60 238 0.0 1.0 0.00 0.00 0.00 56 1013.0
20260509003555 60 158 0.0 1.0 0.00 0.00 0.00 56 1012.9
20260509003054 61 0 0.0 1.0 0.00 0.00 0.00 57 1012.9
20260509002558 61 0 0.0 1.0 0.00 0.00 0.00 56 1012.9
20260509002054 61 0 0.0 2.0 0.00 0.00 0.00 56 1012.9
20260509001558 62 0 0.0 2.0 0.00 0.00 0.00 55 1012.8
20260509001055 62 181 0.0 1.0 0.00 0.00 0.00 57 1012.7
20260509000557 62 0 0.0 4.0 0.00 0.00 0.00 55 1012.8
20260509000111 62 182 0.0 4.0 0.00 0.00 0.00 55 1012.5
20260508235554 62 167 0.0 2.0 0.00 0.00 0.00 53 1012.6
20260508235054 62 137 0.0 2.0 0.00 0.00 0.00 54 1012.7
20260508234555 63 0 0.0 1.0 0.00 0.00 0.00 56 1012.7
20260508234058 63 0 0.0 1.0 0.00 0.00 0.00 54 1012.6
20260508233554 63 0 0.0 1.0 0.00 0.00 0.00 54 1012.5
20260508233117 64 0 0.0 2.0 0.00 0.00 0.00 55 1012.4
20260508232553 64 136 0.0 2.0 0.00 0.00 0.00 53 1012.4
20260508232054 64 209 0.0 3.0 0.00 0.00 0.00 53 1012.3
20260508231559 65 0 0.0 3.0 0.00 0.00 0.00 53 1012.2
20260508231054 65 0 0.0 3.0 0.00 0.00 0.00 52 1012.2
20260508230554 65 188 0.0 3.0 0.00 0.00 0.00 51 1012.2
20260508230053 65 143 1.0 3.0 0.00 0.00 0.00 51 1012.1
20260508225553 65 0 0.0 3.0 0.00 0.00 0.00 52 1012.1
20260508225055 66 0 0.0 3.0 0.00 0.00 0.00 51 1012.1
20260508224623 66 150 1.0 2.0 0.00 0.00 0.00 51 1012.1
20260508224054 66 0 0.0 2.0 0.00 0.00 0.00 50 1012.1
20260508223558 66 284 0.0 2.0 0.00 0.00 0.00 49 1012.0
20260508223055 66 359 0.0 4.0 0.00 0.00 0.00 50 1012.1
20260508222554 67 168 1.0 4.0 0.00 0.00 0.00 49 1012.1
20260508222053 67 314 0.0 2.0 0.00 0.00 0.00 49 1012.1
20260508221554 67 319 0.0 2.0 0.00 0.00 0.00 50 1012.1
20260508221054 67 267 0.0 2.0 0.00 0.00 0.00 50 1011.9
20260508220554 67 256 0.0 2.0 0.00 0.00 0.00 48 1011.9
20260508220056 67 0 1.0 3.0 0.00 0.00 0.00 49 1012.0
20260508215553 67 217 0.0 5.0 0.00 0.00 0.00 50 1012.0
20260508215056 67 176 1.0 7.0 0.00 0.00 0.00 47 1011.9
20260508214552 67 68 0.0 7.0 0.00 0.00 0.00 47 1012.0
20260508214053 67 315 1.0 6.0 0.00 0.00 0.00 48 1012.0
20260508213553 67 60 1.0 4.0 0.00 0.00 0.00 47 1012.0
20260508213057 67 48 1.0 5.0 0.00 0.00 0.00 46 1011.8
20260508212553 67 248 1.0 5.0 0.00 0.00 0.00 46 1011.9
20260508212053 68 322 1.0 4.0 0.00 0.00 0.00 47 1011.9
20260508211555 67 321 1.0 4.0 0.00 0.00 0.00 47 1011.9
20260508211056 67 10 1.0 4.0 0.00 0.00 0.00 46 1011.9
20260508210554 67 313 1.0 4.0 0.00 0.00 0.00 45 1012.0
20260508210055 68 311 2.0 4.0 0.00 0.00 0.00 47 1012.0
20260508205553 68 285 1.0 3.0 0.00 0.00 0.00 47 1012.0
20260508205054 68 255 1.0 4.0 0.00 0.00 0.00 45 1012.0
20260508204558 68 164 1.0 4.0 0.00 0.00 0.00 45 1012.0
20260508204054 68 72 1.0 6.0 0.00 0.00 0.00 44 1012.0
20260508203557 67 20 1.0 6.0 0.00 0.00 0.00 45 1012.1
20260508203058 67 320 1.0 9.0 0.00 0.00 0.00 45 1012.1
20260508202554 67 312 3.0 9.0 0.00 0.00 0.00 43 1012.1
20260508202054 67 318 2.0 5.0 0.00 0.00 0.00 44 1012.3
20260508201558 67 327 1.0 8.0 0.00 0.00 0.00 47 1012.3
20260508201054 67 302 4.0 8.0 0.00 0.00 0.00 44 1012.3
20260508200552 67 319 3.0 7.0 0.00 0.00 0.00 45 1012.3
20260508200111 67 295 1.0 7.0 0.00 0.00 0.00 43 1012.3
20260508195554 67 205 3.0 6.0 0.00 0.00 0.00 44 1012.5
20260508195053 67 316 1.0 6.0 0.00 0.00 0.00 42 1012.5